PBO Station Position Time Series. Reference Frame : NAM14
Format Version,1.1.0
4-character ID,LCHS
Station name,Lake_County
Begin Date, 2008-01-10
End Date, 2019-10-07
Release Date, 2019-10-08
Reference position, 36.3764184449 North Latitude, -89.4721175143 East Longitude, 63.09029 meters elevation,
Date, North (mm), East (mm), Vertical (mm), North Std. Deviation (mm), East Std. Deviation (mm),              Vertical Std. Deviation (mm), Quality,
2008-01-10,0.00, 0.00, 0.00, 1.99, 1.71, 7.61, repro,
2008-01-11,-0.25, -2.00, -5.32, 1.94, 1.66, 7.32, repro,
2008-01-12,-0.14, -2.18, -10.37, 1.99, 1.71, 7.51, repro,
2008-01-13,1.21, -1.19, -22.07, 1.96, 1.67, 7.39, repro,
2008-01-14,-0.53, -1.98, -17.29, 1.97, 1.70, 7.56, repro,
2008-01-15,0.19, -0.69, -12.42, 1.94, 1.66, 7.35, repro,
2008-01-16,-0.68, -1.71, -10.32, 2.02, 1.71, 7.81, repro,
2008-01-17,0.43, -1.26, -12.87, 2.04, 1.76, 7.92, repro,
2008-01-18,-1.19, -1.54, -13.66, 1.99, 1.70, 7.62, repro,
2008-01-19,0.18, -2.15, -16.71, 2.00, 1.76, 7.80, repro,
2008-01-20,-0.66, -1.77, -24.27, 1.97, 1.73, 7.59, repro,
2008-01-21,-0.84, -0.87, -22.91, 2.00, 1.78, 7.83, repro,
2008-01-22,0.28, -2.65, -17.40, 2.00, 1.79, 7.88, repro,
2008-01-23,-0.86, -1.94, -18.06, 1.96, 1.74, 7.62, repro,
2008-01-24,-0.18, -2.01, -20.19, 1.98, 1.73, 7.67, repro,
2008-01-25,-0.78, -1.45, -20.98, 2.02, 1.82, 7.96, repro,
2008-01-26,0.55, -1.93, -16.10, 2.03, 1.81, 7.90, repro,
2008-01-27,0.11, -2.44, -16.33, 2.03, 1.80, 7.93, repro,
2008-01-28,-1.94, -1.05, -8.96, 1.99, 1.77, 7.83, repro,
2008-01-29,1.44, -0.87, -7.36, 2.15, 1.89, 8.74, repro,
2008-01-30,-0.24, -1.60, -14.33, 2.19, 1.90, 8.44, repro,
2008-01-31,1.60, -1.78, -15.93, 1.99, 1.78, 7.82, repro,
2008-02-01,-1.11, -2.17, -11.71, 2.02, 1.77, 7.74, repro,
2008-02-02,-1.88, -1.70, -17.84, 2.02, 1.82, 7.92, repro,
2008-02-03,-0.14, -2.34, -19.14, 2.01, 1.76, 7.72, repro,
2008-02-04,-0.36, -0.70, -11.92, 1.94, 1.68, 7.42, repro,
2008-02-05,-0.17, -1.57, -12.56, 2.04, 1.73, 7.89, repro,
2008-02-06,0.93, -0.32, -8.76, 2.27, 1.95, 8.74, repro,
2008-02-07,-0.92, -1.57, -10.57, 2.00, 1.71, 7.54, repro,
2008-02-08,-1.12, -2.44, -12.51, 1.92, 1.68, 7.46, repro,
2008-02-09,-0.15, -2.49, -16.28, 1.92, 1.65, 7.28, repro,
2008-02-10,-0.52, -3.55, -23.42, 1.92, 1.65, 7.32, repro,
2008-02-11,-1.09, -3.17, -18.59, 1.92, 1.65, 7.33, repro,
2008-02-12,0.81, -3.76, -17.69, 1.93, 1.65, 7.39, repro,
2008-02-13,-4.08, -4.16, -19.86, 1.91, 1.64, 7.23, repro,
2008-02-14,-0.98, -1.74, -19.16, 1.90, 1.63, 7.21, repro,
2008-02-15,-0.11, -2.17, -16.26, 1.98, 1.66, 7.53, repro,
2008-02-18,-1.40, -4.01, -15.93, 1.93, 1.65, 7.28, repro,
2008-02-19,-1.45, -2.93, -21.04, 1.91, 1.65, 7.23, repro,
2008-02-20,-0.42, -2.32, -21.15, 1.92, 1.64, 7.28, repro,
2008-02-21,0.80, -1.63, -22.19, 1.94, 1.66, 7.33, repro,
2008-02-22,-0.69, -2.70, -15.26, 1.93, 1.66, 7.34, repro,
2008-02-23,-0.44, -2.84, -16.97, 1.96, 1.66, 7.40, repro,
2008-02-24,0.79, -6.47, -50.88, 15.08, 9.60, 42.95, repro,
2008-02-26,-0.46, -1.85, -15.49, 1.94, 1.72, 7.41, repro,
2008-02-27,-0.45, -1.34, -19.55, 1.92, 1.67, 7.36, repro,
2008-02-28,-1.53, -0.50, -20.53, 2.00, 1.80, 7.69, repro,
2008-02-29,-0.51, -2.40, -14.72, 1.94, 1.67, 7.35, repro,
2008-03-01,-0.49, -0.86, -18.24, 1.97, 1.72, 7.50, repro,
2008-03-02,-1.33, -0.86, -13.59, 1.97, 1.72, 7.50, repro,
2008-03-03,-0.26, -1.27, -7.57, 1.93, 1.67, 7.37, repro,
2008-03-04,0.11, -0.97, -16.72, 1.97, 1.73, 7.55, repro,
2008-03-05,-1.42, -0.62, -16.82, 2.07, 1.75, 7.90, repro,
2008-03-06,-0.82, -0.39, -23.34, 1.98, 1.72, 7.53, repro,
2008-03-07,-1.06, -1.52, -22.86, 1.93, 1.66, 7.34, repro,
2008-03-08,-0.59, -1.55, -18.61, 2.03, 1.78, 7.71, repro,
2008-03-09,-0.78, -0.90, -24.57, 1.98, 1.72, 7.56, repro,
2008-03-10,-1.45, -1.50, -25.84, 1.95, 1.65, 7.37, repro,
2008-03-11,-1.06, -0.91, -19.43, 1.98, 1.71, 7.51, repro,
2008-03-12,-3.11, -1.34, -15.35, 2.02, 1.77, 7.67, repro,
2008-03-13,-1.70, -1.62, -11.30, 2.03, 1.76, 7.62, repro,
2008-03-14,-0.23, -1.06, 0.88, 2.01, 1.76, 7.69, repro,
2008-03-15,-1.00, -1.69, -10.79, 2.01, 1.73, 7.68, repro,
2008-03-16,-0.40, -0.73, -14.49, 2.02, 1.75, 7.62, repro,
2008-03-17,0.26, -0.78, -21.98, 2.17, 1.92, 8.22, repro,
2008-03-18,-2.47, -0.34, -9.62, 2.02, 1.77, 7.67, repro,
2008-03-19,0.75, -2.11, -7.84, 2.02, 1.78, 7.67, repro,
2008-03-20,-1.54, -1.15, -29.89, 1.97, 1.72, 7.35, repro,
2008-03-21,-0.83, -0.32, -17.45, 2.01, 1.78, 7.53, repro,
2008-03-22,-1.68, -1.56, -21.48, 2.02, 1.79, 7.57, repro,
2008-03-23,-0.06, -1.20, -27.58, 2.04, 1.81, 7.63, repro,
2008-03-24,-0.33, -1.95, -28.59, 2.01, 1.78, 7.51, repro,
2008-03-25,-0.55, -1.87, -25.24, 2.03, 1.73, 7.50, repro,
2008-03-26,-0.36, -1.72, -25.73, 2.04, 1.73, 7.57, repro,
2008-03-27,-2.04, -1.64, -6.89, 2.08, 1.81, 7.84, repro,
2008-03-28,-1.72, -1.86, -18.15, 2.04, 1.74, 7.57, repro,
2008-03-29,-0.86, -0.60, -12.82, 1.99, 1.74, 7.36, repro,
2008-03-30,-1.02, -0.57, -21.82, 1.98, 1.71, 7.29, repro,
2008-03-31,-0.44, -1.18, -22.17, 1.98, 1.72, 7.27, repro,
2008-04-01,0.10, -1.68, -22.53, 1.97, 1.71, 7.26, repro,
2008-04-02,-0.23, -2.15, -22.40, 2.01, 1.73, 7.38, repro,
2008-04-03,1.01, -0.34, -14.00, 2.06, 1.77, 7.55, repro,
2008-04-04,0.53, -0.70, -13.26, 2.00, 1.74, 7.33, repro,
2008-04-05,-1.17, -1.60, -18.58, 2.00, 1.76, 7.33, repro,
2008-04-06,-0.58, -1.24, -20.07, 1.97, 1.72, 7.27, repro,
2008-04-07,0.09, -1.32, -19.09, 1.97, 1.72, 7.25, repro,
2008-04-08,-0.81, -1.43, -17.37, 1.98, 1.74, 7.33, repro,
2008-04-09,-1.67, -2.48, -18.40, 1.98, 1.75, 7.38, repro,
2008-04-10,0.05, -1.24, -16.59, 1.99, 1.73, 7.31, repro,
2008-04-11,-0.29, -4.86, -14.89, 2.08, 1.84, 7.64, repro,
2008-04-12,-0.24, -2.57, -17.55, 1.97, 1.71, 7.28, repro,
2008-04-13,-0.33, -2.92, -19.83, 1.97, 1.71, 7.28, repro,
2008-04-14,-1.21, -2.32, -23.24, 1.96, 1.71, 7.26, repro,
2008-04-15,-0.56, -2.43, -16.04, 1.99, 1.75, 7.34, repro,
2008-04-16,-0.62, -0.97, -20.48, 2.01, 1.74, 7.40, repro,
2008-04-17,-1.53, -1.29, -17.67, 1.96, 1.69, 7.27, repro,
2008-04-18,-1.09, -2.16, -9.54, 2.01, 1.75, 7.51, repro,
2008-04-19,-0.14, -1.63, -13.45, 1.95, 1.70, 7.29, repro,
2008-04-20,-1.38, -2.36, -22.28, 1.94, 1.68, 7.21, repro,
2008-04-21,-0.23, -2.28, -14.26, 1.94, 1.69, 7.26, repro,
2008-04-22,-0.74, -2.43, -17.04, 2.02, 1.75, 7.64, repro,
2008-04-23,0.19, -3.39, -11.99, 2.02, 1.75, 7.67, repro,
2008-04-24,-2.24, -0.62, -10.81, 2.00, 1.72, 7.46, repro,
2008-04-25,-2.07, -1.72, -9.00, 2.00, 1.75, 7.47, repro,
2008-04-26,-1.81, -2.14, -3.20, 2.09, 1.79, 7.76, repro,
2008-04-27,0.63, -3.40, -16.28, 1.99, 1.74, 7.43, repro,
2008-04-28,-0.89, -2.22, -17.88, 1.98, 1.75, 7.48, repro,
2008-04-29,0.03, -3.01, -11.10, 2.02, 1.79, 7.66, repro,
2008-04-30,0.21, -1.95, -13.71, 1.98, 1.71, 7.47, repro,
2008-05-01,-0.77, -0.79, -11.63, 2.02, 1.69, 7.53, repro,
2008-05-02,-0.50, -2.46, -14.96, 2.05, 1.87, 7.93, repro,
2008-05-03,-0.43, -1.43, -8.45, 2.01, 1.76, 7.61, repro,
2008-05-04,-0.42, -2.33, -14.87, 1.95, 1.68, 7.31, repro,
2008-05-05,0.35, -2.02, -16.23, 1.98, 1.70, 7.44, repro,
2008-05-06,-0.37, -1.44, -8.14, 2.01, 1.72, 7.56, repro,
2008-05-07,-1.77, -0.09, -4.60, 1.96, 1.68, 7.33, repro,
2008-05-08,-0.35, -2.77, -1.06, 1.99, 1.70, 7.44, repro,
2008-05-09,1.25, -0.29, -13.36, 1.97, 1.68, 7.37, repro,
2008-05-10,0.47, -1.07, -11.08, 1.97, 1.68, 7.40, repro,
2008-05-11,-0.47, -2.33, -2.68, 2.00, 1.69, 7.48, repro,
2008-05-12,0.52, -2.03, -8.55, 1.96, 1.68, 7.31, repro,
2008-05-13,-0.68, -1.41, -17.30, 1.96, 1.70, 7.41, repro,
2008-05-14,1.55, -3.02, -11.57, 2.00, 1.74, 7.64, repro,
2008-05-15,-0.13, -2.64, -5.68, 1.97, 1.72, 7.41, repro,
2008-05-16,0.78, -2.95, -17.07, 1.95, 1.68, 7.28, repro,
2008-05-17,0.90, -2.33, -18.19, 1.96, 1.68, 7.33, repro,
2008-05-18,-0.57, -2.68, -13.97, 1.99, 1.72, 7.53, repro,
2008-05-19,-0.27, -2.13, -10.27, 1.94, 1.68, 7.27, repro,
2008-05-20,-0.06, -3.20, -7.61, 1.95, 1.69, 7.33, repro,
2008-05-21,0.37, -2.22, -5.71, 1.93, 1.67, 7.28, repro,
2008-05-22,1.44, -1.09, -13.09, 1.98, 1.68, 7.43, repro,
2008-05-23,0.28, -2.27, -10.55, 2.00, 1.70, 7.60, repro,
2008-05-24,0.75, -4.24, -7.01, 2.00, 1.71, 7.51, repro,
2008-05-25,0.70, -2.88, -10.26, 1.94, 1.68, 7.33, repro,
2008-05-26,-1.18, -2.46, -36.02, 2.12, 1.88, 8.29, repro,
2008-05-27,0.22, -4.21, -12.64, 2.05, 1.76, 7.92, repro,
2008-05-28,-0.44, -2.00, -21.30, 2.06, 1.73, 7.91, repro,
2008-05-29,0.65, -2.58, -13.99, 2.01, 1.72, 7.63, repro,
2008-05-30,0.11, -4.04, -10.67, 1.99, 1.69, 7.53, repro,
2008-05-31,-2.18, -2.67, -10.61, 2.06, 1.80, 7.96, repro,
2008-06-01,-0.66, -0.60, -18.64, 2.07, 1.76, 7.82, repro,
2008-06-02,-0.33, -1.79, -13.33, 1.97, 1.68, 7.45, repro,
2008-06-03,-1.06, -2.34, -0.24, 2.04, 1.73, 7.77, repro,
2008-06-04,2.49, -1.69, 7.32, 1.97, 1.71, 7.53, repro,
2008-06-05,-1.09, -3.34, 2.70, 1.93, 1.69, 7.34, repro,
2008-06-06,-0.84, -1.46, -9.00, 1.97, 1.76, 7.56, repro,
2008-06-07,-1.07, -1.16, -5.64, 1.99, 1.75, 7.63, repro,
2008-06-08,0.05, -3.04, -9.69, 1.97, 1.74, 7.58, repro,
2008-06-09,0.73, -2.98, -4.78, 2.16, 1.89, 8.13, repro,
2008-06-10,-1.72, -2.35, -5.46, 2.38, 2.12, 8.65, repro,
2008-06-11,-0.31, -3.32, -4.53, 1.95, 1.70, 7.46, repro,
2008-06-12,-0.32, -5.00, -6.63, 2.01, 1.79, 7.72, repro,
2008-06-13,-0.07, -3.94, -23.39, 2.06, 1.78, 7.72, repro,
2008-06-14,-4.36, -3.74, -5.81, 2.21, 1.95, 8.85, repro,
2008-06-15,-0.67, -5.17, -4.41, 1.99, 1.75, 7.70, repro,
2008-06-16,-1.25, -2.72, -7.80, 2.03, 1.76, 7.74, repro,
2008-06-17,-0.15, -3.49, -13.15, 1.94, 1.68, 7.35, repro,
2008-06-18,-0.90, -2.69, -16.32, 2.00, 1.72, 7.59, repro,
2008-06-19,0.50, -3.68, -16.41, 1.99, 1.70, 7.61, repro,
2008-06-20,-0.82, -2.95, -14.94, 1.94, 1.69, 7.37, repro,
2008-06-21,-0.96, -2.47, -3.37, 1.97, 1.69, 7.42, repro,
2008-06-22,-0.78, -4.19, -14.38, 1.95, 1.67, 7.32, repro,
2008-06-23,-1.70, -2.45, -8.88, 1.99, 1.69, 7.44, repro,
2008-06-24,-1.46, -3.69, -13.61, 2.02, 1.73, 7.73, repro,
2008-06-25,0.03, -4.67, -10.32, 2.06, 1.84, 7.88, repro,
2008-06-26,-0.34, -4.22, -3.81, 2.07, 1.73, 7.86, repro,
2008-06-27,-3.29, -2.45, 3.31, 2.13, 1.83, 8.00, repro,
2008-06-28,-1.86, -1.77, -6.68, 2.02, 1.71, 7.72, repro,
2008-06-29,0.17, -4.05, -7.95, 2.01, 1.70, 7.64, repro,
2008-06-30,-1.20, -1.85, -7.73, 1.95, 1.69, 7.37, repro,
2008-07-01,-2.57, -5.33, -13.20, 1.96, 1.69, 7.37, repro,
2008-07-02,-2.30, -2.48, -6.23, 1.94, 1.69, 7.37, repro,
2008-07-03,-2.75, -3.42, -13.95, 1.94, 1.67, 7.31, repro,
2008-07-04,0.33, -3.75, -4.58, 1.96, 1.68, 7.38, repro,
2008-07-05,-0.19, -2.40, -19.10, 1.95, 1.69, 7.38, repro,
2008-07-06,-1.14, -3.39, -18.70, 1.95, 1.68, 7.35, repro,
2008-07-07,-1.20, -4.13, 1.66, 2.01, 1.72, 7.67, repro,
2008-07-08,-2.79, -2.06, -13.93, 2.04, 1.76, 7.68, repro,
2008-07-09,-0.80, -2.97, -2.10, 2.02, 1.71, 7.71, repro,
2008-07-10,0.09, -3.83, -4.70, 2.25, 2.01, 8.51, repro,
2008-07-11,-2.95, -1.49, -1.61, 2.09, 1.87, 7.98, repro,
2008-07-12,-1.68, -1.37, 0.73, 2.12, 1.85, 8.09, repro,
2008-07-13,1.45, -1.00, -2.01, 2.15, 1.73, 8.14, repro,
2008-07-14,1.36, -4.20, 0.16, 1.94, 1.67, 7.34, repro,
2008-07-15,-1.80, -2.33, -7.01, 1.94, 1.69, 7.35, repro,
2008-07-16,-0.78, -3.13, -6.18, 1.94, 1.68, 7.31, repro,
2008-07-17,-2.87, -2.06, -4.42, 1.93, 1.68, 7.34, repro,
2008-07-18,-1.38, -3.51, -25.97, 2.30, 2.08, 8.94, repro,
2008-07-19,-4.29, -2.38, -4.49, 2.13, 1.88, 8.19, repro,
2008-07-20,-1.48, -1.71, 7.17, 1.95, 1.70, 7.48, repro,
2008-07-21,-0.57, -5.28, -10.31, 1.99, 1.68, 7.43, repro,
2008-07-22,-1.96, -3.82, 8.81, 2.04, 1.80, 7.89, repro,
2008-07-23,-0.32, -4.82, -5.29, 1.99, 1.74, 7.68, repro,
2008-07-24,-4.26, -1.64, 3.05, 2.03, 1.80, 7.78, repro,
2008-07-25,0.60, -2.92, 3.71, 1.95, 1.68, 7.41, repro,
2008-07-26,0.91, -3.58, 2.42, 2.08, 1.81, 7.86, repro,
2008-07-27,-1.50, -4.25, 7.48, 2.00, 1.72, 7.54, repro,
2008-07-28,-1.75, -3.43, 10.68, 1.99, 1.78, 7.76, repro,
2008-07-29,-1.56, -2.98, 0.25, 1.97, 1.80, 7.63, repro,
2008-07-30,-1.91, -1.72, -0.10, 2.00, 1.78, 7.62, repro,
2008-07-31,1.73, 0.76, 1.29, 1.97, 1.73, 7.57, repro,
2008-08-01,-1.21, -3.09, -3.46, 1.93, 1.68, 7.36, repro,
2008-08-02,-1.34, -1.11, -0.97, 1.97, 1.71, 7.50, repro,
2008-08-03,0.22, -1.51, -5.46, 1.98, 1.71, 7.63, repro,
2008-08-04,-2.06, -1.87, -2.90, 1.93, 1.70, 7.40, repro,
2008-08-05,0.25, -2.66, -3.85, 1.95, 1.70, 7.47, repro,
2008-08-06,-1.44, -2.30, -4.48, 2.00, 1.75, 7.67, repro,
2008-08-07,-2.15, -0.99, -0.99, 2.06, 1.86, 7.98, repro,
2008-08-08,-0.10, -2.40, -6.59, 2.00, 1.81, 7.70, repro,
2008-08-09,1.13, -4.15, -8.86, 1.95, 1.75, 7.54, repro,
2008-08-10,-0.49, -0.02, 6.68, 1.98, 1.76, 7.63, repro,
2008-08-11,-1.04, -1.10, -8.89, 1.98, 1.74, 7.52, repro,
2008-08-12,-1.26, 0.17, 0.96, 1.97, 1.73, 7.47, repro,
2008-08-13,0.10, -2.25, 9.24, 1.99, 1.76, 7.59, repro,
2008-08-14,0.27, -3.22, 1.63, 1.96, 1.76, 7.54, repro,
2008-08-15,-1.23, -1.19, -3.29, 1.96, 1.76, 7.55, repro,
2008-08-16,1.44, -2.20, -4.92, 1.97, 1.77, 7.60, repro,
2008-08-17,-0.90, -3.01, -8.49, 2.03, 1.79, 7.69, repro,
2008-08-18,-0.60, -2.06, -4.68, 1.95, 1.74, 7.44, repro,
2008-08-19,-1.66, -2.02, 0.34, 2.00, 1.79, 7.59, repro,
2008-08-20,-0.25, -1.68, 2.16, 1.98, 1.78, 7.59, repro,
2008-08-21,-1.30, -0.84, 0.11, 1.97, 1.78, 7.59, repro,
2008-08-22,-1.85, -1.92, 4.75, 2.02, 1.85, 7.69, repro,
2008-08-23,-1.75, -4.04, 0.82, 1.99, 1.76, 7.50, repro,
2008-08-24,-0.73, -1.60, 0.98, 2.04, 1.80, 7.78, repro,
2008-08-25,-1.73, -2.02, 10.61, 2.05, 1.82, 7.73, repro,
2008-08-26,-1.69, -0.77, 3.27, 2.03, 1.79, 7.84, repro,
2008-08-27,-1.88, -1.52, 9.47, 2.04, 1.84, 7.84, repro,
2008-08-28,-0.94, -0.03, 1.42, 2.05, 1.88, 7.89, repro,
2008-08-29,-1.97, -0.18, 15.49, 2.10, 1.91, 8.15, repro,
2008-08-30,-0.35, 0.22, -3.52, 1.99, 1.80, 7.63, repro,
2008-08-31,-1.16, -1.71, 2.44, 1.99, 1.81, 7.62, repro,
2008-09-01,-3.15, 0.88, 4.99, 2.04, 1.85, 7.86, repro,
2008-09-02,-1.42, -4.11, 7.80, 2.08, 1.86, 7.93, repro,
2008-09-03,-2.70, -0.86, 6.65, 2.07, 1.82, 8.02, repro,
2008-09-04,-1.21, -1.88, 2.48, 2.17, 1.89, 8.21, repro,
2008-09-05,-1.05, -2.01, 4.06, 2.07, 1.85, 7.92, repro,
2008-09-06,-1.36, -2.27, -0.85, 1.98, 1.79, 7.57, repro,
2008-09-07,-1.11, -2.04, -6.72, 2.03, 1.84, 7.76, repro,
2008-09-08,-1.65, -1.66, -4.42, 2.03, 1.83, 7.75, repro,
2008-09-09,-2.51, -1.17, -4.49, 2.00, 1.86, 7.76, repro,
2008-09-10,-2.98, -1.47, -0.59, 2.19, 1.88, 8.22, repro,
2008-09-11,-1.48, -1.31, -3.54, 2.09, 1.90, 8.01, repro,
2008-09-12,-2.71, -0.83, 4.24, 2.13, 1.88, 8.10, repro,
2008-09-13,-1.43, -2.62, 0.50, 2.11, 1.87, 7.95, repro,
2008-09-14,-2.66, 0.40, -3.06, 2.12, 1.93, 8.36, repro,
2008-09-15,-0.65, -1.62, -12.37, 2.03, 1.82, 7.75, repro,
2008-09-16,-1.61, -2.86, -6.55, 2.06, 1.82, 7.94, repro,
2008-09-17,-0.76, -3.58, -12.71, 2.10, 1.83, 8.03, repro,
2008-09-18,-1.07, -2.82, -11.92, 1.99, 1.80, 7.63, repro,
2008-09-19,-2.84, -2.06, -7.58, 2.04, 1.84, 7.89, repro,
2008-09-20,-1.75, -3.25, -12.07, 1.98, 1.79, 7.68, repro,
2008-09-21,-2.01, -3.50, -10.22, 2.00, 1.80, 7.65, repro,
2008-09-22,-2.26, -1.72, -14.70, 2.00, 1.79, 7.67, repro,
2008-09-23,-0.64, -2.87, -8.59, 1.99, 1.81, 7.60, repro,
2008-09-24,-1.35, -4.56, -5.13, 2.07, 1.81, 7.74, repro,
2008-09-25,-1.52, -2.89, -10.84, 1.96, 1.76, 7.52, repro,
2008-09-26,-0.10, -2.64, -5.00, 1.96, 1.75, 7.51, repro,
2008-09-27,-1.28, -3.44, -2.47, 2.07, 1.80, 7.70, repro,
2008-09-28,-2.06, -4.80, -3.91, 1.95, 1.73, 7.43, repro,
2008-09-29,-1.65, -3.71, -1.28, 2.01, 1.77, 7.60, repro,
2008-09-30,-1.79, -4.32, 0.05, 1.97, 1.75, 7.54, repro,
2008-10-01,-1.34, -3.01, -1.74, 2.01, 1.78, 7.62, repro,
2008-10-02,-0.69, -2.49, -0.69, 2.07, 1.79, 7.67, repro,
2008-10-03,-2.46, -3.51, -3.96, 2.07, 1.78, 7.64, repro,
2008-10-04,-1.42, -3.26, -3.55, 2.00, 1.76, 7.54, repro,
2008-10-05,-1.89, -3.21, -1.57, 1.97, 1.74, 7.50, repro,
2008-10-06,-0.41, -3.04, -6.98, 1.97, 1.74, 7.47, repro,
2008-10-07,-1.42, -3.39, -2.49, 2.01, 1.80, 7.78, repro,
2008-10-08,-2.29, -4.04, 8.08, 1.99, 1.74, 7.49, repro,
2008-10-09,-2.15, -1.92, -2.82, 1.92, 1.68, 7.27, repro,
2008-10-10,-1.08, -2.93, -4.64, 1.94, 1.70, 7.37, repro,
2008-10-11,-0.80, -2.92, -9.59, 1.93, 1.70, 7.33, repro,
2008-10-12,-0.69, -2.24, -3.37, 1.92, 1.70, 7.33, repro,
2008-10-13,-0.94, -2.84, -7.15, 1.93, 1.71, 7.37, repro,
2008-10-14,-1.36, -3.16, -16.04, 1.91, 1.68, 7.23, repro,
2008-10-15,-1.45, -1.76, -7.41, 1.98, 1.72, 7.47, repro,
2008-10-16,-0.95, -3.48, -2.51, 2.07, 1.78, 7.77, repro,
2008-10-17,-1.41, -1.92, -7.91, 1.90, 1.70, 7.28, repro,
2008-10-18,-0.84, -2.82, -5.25, 1.92, 1.70, 7.31, repro,
2008-10-19,-0.31, -2.56, -9.32, 1.91, 1.69, 7.26, repro,
2008-10-20,-0.97, -3.82, -12.64, 1.91, 1.69, 7.26, repro,
2008-10-21,-1.14, -3.60, -5.43, 1.93, 1.71, 7.38, repro,
2008-10-22,-0.50, -2.03, -4.18, 1.95, 1.75, 7.44, repro,
2008-10-23,-1.07, -2.84, -5.79, 1.96, 1.75, 7.50, repro,
2008-10-24,-0.49, -2.21, -0.45, 1.96, 1.75, 7.47, repro,
2008-10-25,-1.99, -2.37, -6.72, 1.95, 1.73, 7.37, repro,
2008-10-26,-1.45, -2.98, -8.66, 1.93, 1.71, 7.34, repro,
2008-10-27,-0.18, -3.27, -10.14, 1.92, 1.71, 7.37, repro,
2008-10-28,-1.46, -3.02, -13.97, 1.93, 1.76, 7.43, repro,
2008-10-29,-1.49, -3.05, -9.30, 1.95, 1.78, 7.51, repro,
2008-10-30,-0.65, -1.32, -12.35, 1.92, 1.72, 7.38, repro,
2008-10-31,-1.32, -2.54, -14.39, 1.99, 1.83, 7.87, repro,
2008-11-01,-0.62, -2.10, -4.98, 1.96, 1.77, 7.50, repro,
2008-11-02,-0.40, -1.32, -10.08, 1.94, 1.75, 7.39, repro,
2008-11-03,-1.19, -1.58, -9.19, 1.97, 1.81, 7.56, repro,
2008-11-04,-0.38, -1.85, -6.11, 1.96, 1.77, 7.50, repro,
2008-11-05,-2.34, -0.74, -1.99, 1.96, 1.78, 7.51, repro,
2008-11-06,-0.96, -1.86, 4.34, 1.99, 1.79, 7.76, repro,
2008-11-07,-0.88, -2.93, -3.62, 1.98, 1.78, 7.57, repro,
2008-11-08,-0.25, -2.91, 0.63, 1.93, 1.72, 7.33, repro,
2008-11-09,-0.38, -1.40, 0.75, 1.93, 1.71, 7.30, repro,
2008-11-10,-1.36, -2.08, -3.74, 1.97, 1.77, 7.55, repro,
2008-11-11,-0.48, -1.68, -4.09, 1.97, 1.75, 7.48, repro,
2008-11-12,-0.53, -2.19, 2.12, 1.96, 1.73, 7.41, repro,
2008-11-13,-1.40, -2.54, -2.66, 1.97, 1.77, 7.59, repro,
2008-11-14,-0.75, -2.08, 4.15, 2.07, 1.82, 7.93, repro,
2008-11-15,-0.86, -2.84, -6.98, 1.99, 1.78, 7.58, repro,
2008-11-16,-1.77, -2.72, -8.68, 2.02, 1.80, 7.82, repro,
2008-11-17,-1.15, -2.57, -10.56, 2.06, 1.85, 7.84, repro,
2008-11-18,-0.27, -2.37, -14.64, 2.13, 1.79, 7.80, repro,
2008-11-19,-2.08, -2.08, -13.11, 1.93, 1.70, 7.37, repro,
2008-11-20,-0.31, -3.45, -16.41, 2.01, 1.77, 7.79, repro,
2008-11-21,-0.65, -3.15, -24.89, 2.00, 1.76, 7.72, repro,
2008-11-22,-1.18, -1.87, -20.17, 2.01, 1.78, 7.69, repro,
2008-11-23,-0.66, -2.11, -16.67, 1.98, 1.76, 7.74, repro,
2008-11-24,-1.00, -2.56, -17.82, 1.96, 1.77, 7.70, repro,
2008-11-25,-2.39, -3.59, -8.66, 1.94, 1.72, 7.46, repro,
2008-11-26,-1.29, -1.95, -11.37, 1.90, 1.69, 7.30, repro,
2008-11-27,-1.29, -2.55, -11.47, 1.91, 1.69, 7.31, repro,
2008-11-28,-1.09, -1.82, -8.26, 1.92, 1.72, 7.40, repro,
2008-11-29,-0.54, -2.76, 0.78, 1.92, 1.74, 7.48, repro,
2008-11-30,-1.19, -1.88, 6.20, 1.94, 1.74, 7.57, repro,
2008-12-01,-1.74, -2.40, -2.62, 1.89, 1.69, 7.31, repro,
2008-12-02,-0.95, -1.69, -7.18, 1.94, 1.73, 7.47, repro,
2008-12-03,-1.97, -1.89, -9.14, 1.93, 1.71, 7.41, repro,
2008-12-04,-0.53, -3.68, -17.47, 1.98, 1.75, 7.71, repro,
2008-12-05,-1.47, -2.05, -12.23, 1.93, 1.72, 7.50, repro,
2008-12-06,-2.87, -2.42, -9.07, 1.93, 1.74, 7.52, repro,
2008-12-07,-0.92, -2.75, -9.38, 1.92, 1.73, 7.47, repro,
2008-12-08,-0.96, -1.15, -8.27, 1.92, 1.68, 7.33, repro,
2008-12-09,-2.43, -1.72, -5.47, 1.94, 1.72, 7.49, repro,
2008-12-10,-0.31, -3.42, -6.60, 1.91, 1.68, 7.39, repro,
2008-12-11,-1.05, -1.95, -11.04, 1.98, 1.73, 7.51, repro,
2008-12-12,-1.63, -2.81, -15.26, 1.94, 1.68, 7.30, repro,
2008-12-13,-2.51, -1.40, -17.11, 1.91, 1.66, 7.29, repro,
2008-12-14,-2.02, -1.79, -12.36, 1.92, 1.66, 7.30, repro,
2008-12-15,-0.15, -3.62, -14.07, 1.91, 1.67, 7.31, repro,
2008-12-16,-1.30, -3.09, -18.42, 1.89, 1.66, 7.25, repro,
2008-12-17,-0.46, -2.70, -16.37, 1.91, 1.70, 7.38, repro,
2008-12-18,-0.62, -1.92, -15.13, 1.90, 1.66, 7.23, repro,
2008-12-19,-1.03, -3.27, -23.51, 2.04, 1.79, 7.70, repro,
2008-12-20,-1.06, -4.03, -18.17, 1.92, 1.67, 7.34, repro,
2008-12-21,-0.03, -3.14, -16.73, 1.90, 1.66, 7.25, repro,
2008-12-22,-1.56, -2.63, -24.20, 1.89, 1.68, 7.30, repro,
2008-12-23,-0.91, -0.21, -18.94, 1.91, 1.68, 7.34, repro,
2008-12-24,-1.45, -2.11, -9.03, 1.95, 1.71, 7.53, repro,
2008-12-25,-1.36, -1.82, -15.28, 1.92, 1.67, 7.34, repro,
2008-12-26,-1.90, -0.91, -6.54, 1.90, 1.66, 7.27, repro,
2008-12-27,-1.28, -2.40, -10.12, 1.90, 1.66, 7.27, repro,
2008-12-28,-1.63, -2.55, -10.79, 1.90, 1.69, 7.34, repro,
2008-12-29,-0.45, -1.83, -16.32, 1.92, 1.67, 7.36, repro,
2008-12-30,-1.65, -1.58, -23.38, 1.94, 1.71, 7.51, repro,
2008-12-31,0.20, -3.57, -17.06, 1.91, 1.66, 7.32, repro,
2009-01-01,-0.97, -0.99, -18.19, 1.96, 1.72, 7.70, repro,
2009-01-02,-1.40, -2.22, -8.52, 1.92, 1.70, 7.45, repro,
2009-01-03,-1.02, -1.86, -10.39, 1.94, 1.72, 7.54, repro,
2009-01-04,-0.85, -1.58, -14.46, 1.93, 1.71, 7.52, repro,
2009-01-05,0.18, -3.29, -11.46, 1.93, 1.69, 7.44, repro,
2009-01-06,-2.05, -4.47, -0.66, 1.93, 1.70, 7.45, repro,
2009-01-07,-1.75, -2.00, 0.40, 1.93, 1.70, 7.44, repro,
2009-01-08,-1.71, -2.39, -6.56, 1.98, 1.73, 7.59, repro,
2009-01-09,-0.76, -0.88, -18.23, 2.05, 1.82, 8.03, repro,
2009-01-10,-1.42, -3.49, -13.05, 1.97, 1.75, 7.62, repro,
2009-01-11,-1.65, -2.52, -19.15, 1.95, 1.72, 7.61, repro,
2009-01-12,-2.49, -2.26, -21.18, 1.98, 1.78, 7.79, repro,
2009-01-13,-1.00, -2.16, -21.09, 2.00, 1.80, 7.82, repro,
2009-01-14,-0.68, -2.82, -24.08, 1.98, 1.80, 7.82, repro,
2009-01-15,0.06, -2.48, -21.81, 1.93, 1.71, 7.65, repro,
2009-01-16,-1.41, -2.16, -28.26, 1.92, 1.69, 7.51, repro,
2009-01-17,-2.43, -1.92, -23.85, 1.99, 1.80, 7.87, repro,
2009-01-18,-1.41, -2.14, -15.26, 1.96, 1.73, 7.52, repro,
2009-01-19,-1.19, -3.13, -12.78, 1.98, 1.79, 7.86, repro,
2009-01-20,-0.54, -2.57, -16.44, 1.99, 1.80, 7.92, repro,
2009-01-21,-0.40, -0.65, -17.22, 1.96, 1.75, 7.68, repro,
2009-01-22,-1.09, -2.04, -13.40, 1.98, 1.78, 7.83, repro,
2009-01-23,-0.75, -1.59, -23.02, 1.90, 1.65, 7.26, repro,
2009-01-24,-0.67, -2.97, -29.48, 2.03, 1.82, 8.10, repro,
2009-01-25,-0.57, -2.17, -19.85, 1.95, 1.73, 7.70, repro,
2009-01-26,0.10, -1.53, -18.51, 1.95, 1.69, 7.50, repro,
2009-01-27,0.67, -6.32, -16.35, 1.98, 1.75, 7.66, repro,
2009-01-28,-2.05, -6.68, -7.13, 1.90, 1.65, 7.24, repro,
2009-01-29,-3.19, -5.39, -14.97, 1.90, 1.65, 7.26, repro,
2009-01-30,-1.96, -3.72, -12.44, 1.90, 1.65, 7.26, repro,
2009-01-31,-1.41, -1.45, -14.82, 1.90, 1.65, 7.26, repro,
2009-02-01,0.02, -1.96, -15.13, 1.91, 1.66, 7.31, repro,
2009-02-02,0.23, -1.98, -22.10, 1.93, 1.69, 7.49, repro,
2009-02-03,-1.03, -2.65, -21.60, 1.89, 1.64, 7.21, repro,
2009-02-04,-0.82, -2.17, -25.61, 1.89, 1.65, 7.25, repro,
2009-02-05,-0.42, -1.13, -25.31, 1.90, 1.67, 7.32, repro,
2009-02-06,-0.50, -1.90, -18.49, 1.94, 1.69, 7.53, repro,
2009-02-07,-0.82, -0.97, -15.76, 1.90, 1.65, 7.28, repro,
2009-02-08,-1.00, -2.55, -17.22, 1.93, 1.67, 7.45, repro,
2009-02-09,-0.34, -1.08, -19.85, 1.91, 1.67, 7.32, repro,
2009-02-10,-0.72, -0.81, -8.82, 1.91, 1.67, 7.33, repro,
2009-02-11,-1.09, -2.43, -9.64, 2.02, 1.72, 7.69, repro,
2009-02-12,0.36, -1.62, -11.71, 1.95, 1.67, 7.39, repro,
2009-02-13,-0.30, -1.29, -16.32, 1.90, 1.64, 7.29, repro,
2009-02-14,-0.76, -2.09, -20.00, 1.90, 1.64, 7.24, repro,
2009-02-15,1.02, -0.90, -21.15, 1.93, 1.68, 7.35, repro,
2009-02-16,-0.21, -0.88, -21.49, 1.94, 1.67, 7.32, repro,
2009-02-17,0.10, -0.72, -19.00, 1.94, 1.68, 7.45, repro,
2009-02-18,0.96, -1.59, -8.96, 2.01, 1.76, 7.67, repro,
2009-02-19,-1.94, -2.63, -18.19, 1.94, 1.68, 7.34, repro,
2009-02-20,-1.31, -1.10, -19.25, 1.96, 1.72, 7.41, repro,
2009-02-21,0.35, -2.23, -19.81, 2.02, 1.77, 7.52, repro,
2009-02-22,-1.79, -1.67, -30.06, 1.99, 1.74, 7.56, repro,
2009-02-23,-0.16, -0.67, -28.73, 1.98, 1.73, 7.52, repro,
2009-02-24,-1.76, -1.09, -24.47, 2.04, 1.78, 7.67, repro,
2009-02-25,-2.67, -0.48, -17.03, 7.52, 34.71, 179.34, repro,
2009-02-26,-0.21, -0.86, -13.03, 2.02, 1.77, 7.65, repro,